Location: Bacharowice
(49.9333°N, 19.5833°E)
Time: 00:55:54
(UTC+00:00)

SPOT 1/Viking Rocket - Pass Details

Date: 11 May 2021
Orbit: 777 x 794 km, 98.4° (Epoch: 24 June)

Event Time Altitude Azimuth Distance (km) Brightness Sun altitude
Exits shadow 19:42:56 12° 168° (SSE) 2,248 5.4 -11.8°
Maximum altitude 19:47:53 81° 255° (WSW) 806 3.6 -12.3°
Drops below altitude 10° 19:53:06 10° 344° (NNW) 2,360 7.2 -12.8°
Sets 19:55:26 0° 345° (NNW) 3,290 8.1 -13.1°
